Meteo Giornale » Osservazioni meteo Stati Uniti (USA) » Greenville-Majors
ore: 07:50 - Osservazioni Meteo Greenville-Majors
Lat. 33° 4' N Lon. 96° 4' W Alt. 163 metri s.l.m.
26 °C
Sereno
Temp. 24 Ore
22 °C
38 °C
Nord
0 Km/h
Dew point 21 °C
Umidità 73 %
Visibilità 10 Km
Il sole sorge alle ore 06:58
Il sole tramonta alle ore 19:49
| Data e Ora | Cielo e Fenomeni | T °C | DP °C | Um. % | Pres. hPa | Vis. km | Vento km/h | |
|---|---|---|---|---|---|---|---|---|
| Oggi h: 07:50 | Sereno | 26 | 21 | 73 | 1018 | 10 | N 0 | |
| Oggi h: 07:30 | Sereno | 24 | 22 | 88 | 1017 | 10 | N 0 | |
| Oggi h: 07:10 | Sereno | 24 | 21 | 83 | 1017 | 10 | N 0 | |
| Oggi h: 06:50 | Sereno | 22 | 21 | 94 | 1017 | 10 | N 0 | |
| Oggi h: 06:30 | Sereno | 23 | 21 | 88 | 1017 | 10 | N 0 | |
| Oggi h: 06:10 | Sereno | 23 | 21 | 88 | 1016 | 10 | N 0 | |
| Oggi h: 05:50 | Sereno | 23 | 20 | 83 | 1017 | 10 | N 0 | |
| Oggi h: 05:30 | Sereno | 23 | 20 | 83 | 1016 | 10 | N 0 | |
| Oggi h: 05:10 | Sereno | 23 | 20 | 83 | 1016 | 10 | N 5.5 | |
| Oggi h: 04:50 | Sereno | 24 | 20 | 78 | 1016 | 10 | N 5.5 | |
| Oggi h: 04:30 | Sereno | 24 | 20 | 78 | 1017 | 10 | N 0 | |
| Oggi h: 04:10 | Sereno | 25 | 20 | 73 | 1017 | 10 | N 0 | |
| Oggi h: 03:50 | Sereno | 25 | 20 | 73 | 1016 | 10 | N 5.5 | |
| Oggi h: 03:30 | Sereno | 25 | 20 | 73 | 1016 | 10 | SE 7.4 | |
| Oggi h: 03:10 | Sereno | 25 | 20 | 73 | 1016 | 10 | N 5.5 | |
| Oggi h: 02:50 | Sereno | 25 | 19 | 69 | 1016 | 10 | SE 9.3 | |
| Oggi h: 02:30 | Sereno | 25 | 19 | 69 | 1016 | 10 | E/SE 7.4 | |
| Oggi h: 02:10 | Sereno | 25 | 19 | 69 | 1016 | 10 | SE 7.4 | |
| Oggi h: 01:50 | Sereno | 25 | 19 | 69 | 1016 | 10 | N 5.5 | |
| Oggi h: 01:30 | Sereno | 26 | 19 | 65 | 1016 | 10 | E/SE 7.4 | |
| Oggi h: 01:10 | Sereno | 26 | 19 | 65 | 1016 | 10 | SE 7.4 | |
| Oggi h: 00:50 | Sereno | 26 | 19 | 65 | 1016 | 10 | N 5.5 | |
| Oggi h: 00:30 | Sereno | 27 | 18 | 57 | 1016 | 10 | N 5.5 | |
| Oggi h: 00:10 | Sereno | 27 | 18 | 57 | 1015 | 10 | SE 7.4 | |
| Ieri h: 23:50 | Sereno | 28 | 18 | 54 | 1015 | 10 | SE 9.3 | |
| Ieri h: 23:30 | Sereno | 29 | 18 | 51 | 1015 | 10 | SE 11.1 | |
| Ieri h: 23:10 | Sereno | 29 | 18 | 51 | 1015 | 10 | SE 11.1 | |
| Ieri h: 22:50 | Sereno | 28 | 18 | 54 | 1015 | 10 | SE 11.1 | |
| Ieri h: 22:30 | Sereno | 28 | 18 | 54 | 1015 | 10 | E/SE 7.4 | |
| Ieri h: 22:10 | Sereno | 29 | 17 | 48 | 1015 | 10 | E/SE 7.4 | |
| Ieri h: 21:50 | Sereno | 29 | 17 | 48 | 1015 | 10 | E/SE 9.3 | |
| Ieri h: 21:30 | Sereno | 29 | 17 | 48 | 1015 | 10 | E/SE 9.3 | |
| Ieri h: 21:10 | Sereno | 29 | 17 | 48 | 1014 | 10 | E/SE 7.4 | |
| Ieri h: 20:50 | Sereno | 30 | 17 | 45 | 1014 | 10 | E 7.4 | |
| Ieri h: 20:30 | Sereno | 31 | 16 | 40 | 1014 | 10 | E/SE 7.4 | |
| Ieri h: 20:10 | Sereno | 32 | 16 | 38 | 1014 | 10 | E/SE 7.4 | |
| Ieri h: 19:50 | Sereno | 33 | 16 | 36 | 1014 | 10 | E/SE 9.3 | |
| Ieri h: 19:30 | Sereno | 34 | 16 | 34 | 1014 | 10 | SE 11.1 | |
| Ieri h: 19:10 | Sereno | 35 | 16 | 32 | 1014 | 10 | SE 14.8 | |
| Ieri h: 18:50 | Sereno | 36 | 16 | 30 | 1014 | 10 | S/SE 13 | |
| Ieri h: 18:30 | Sereno | 37 | 16 | 28 | 1014 | 10 | S/SE 9.3 | |
| Ieri h: 18:10 | Sereno | 37 | 16 | 28 | 1014 | 10 | S/SE 13 | |
| Ieri h: 17:50 | Sereno | 37 | 16 | 28 | 1014 | 10 | N 5.5 | |
| Ieri h: 17:30 | Sereno | 38 | 16 | 27 | 1014 | 10 | S 13 | |
| Ieri h: 17:10 | Sereno | 38 | 17 | 29 | 1014 | 10 | S/SE 14.8 | |
| Ieri h: 16:50 | Sereno | 38 | 16 | 27 | 1014 | 10 | E/SE 9.3 | |
| Ieri h: 16:30 | Sereno | 38 | 16 | 27 | 1014 | 10 | E/SE 14.8 | |
| Ieri h: 16:10 | Nuvoloso | 38 | 17 | 29 | 1014 | 10 | S/SE 13 | |
| Ieri h: 15:50 | Nuvoloso | 38 | 16 | 27 | 1015 | 10 | S/SE 14.8 | |
| Ieri h: 15:30 | Molto Nuvoloso | 37 | 17 | 30 | 1015 | 10 | E 11.1 | |
| Ieri h: 15:10 | Molto Nuvoloso | 38 | 17 | 29 | 1015 | 10 | E/SE 16.7 | |
| Ieri h: 14:50 | Nuvoloso | 38 | 15 | 25 | 1015 | 10 | S 24 | |
| Ieri h: 14:30 | Sereno | 38 | 15 | 25 | 1016 | 10 | S/SE 11.1 | |
| Ieri h: 14:10 | Sereno | 38 | 17 | 29 | 1016 | 10 | S 20.3 | |
| Ieri h: 13:50 | Sereno | 37 | 17 | 30 | 1016 | 10 | S/SE 24 | |
| Ieri h: 13:30 | Sereno | 37 | 17 | 30 | 1016 | 10 | SE 24 | |
| Ieri h: 13:10 | Nuvoloso | 37 | 17 | 30 | 1016 | 10 | S/SE 22.2 | |
| Ieri h: 12:50 | Nuvoloso | 37 | 17 | 30 | 1017 | 10 | SE 16.7 | |
| Ieri h: 12:30 | Sereno | 36 | 18 | 34 | 1017 | 10 | S 13 | |
| Ieri h: 12:10 | Sereno | 35 | 18 | 36 | 1017 | 10 | N 5.5 | |
| Ieri h: 11:50 | Sereno | 35 | 18 | 36 | 1017 | 10 | SO 14.8 | |
| Ieri h: 11:30 | Sereno | 35 | 18 | 36 | 1018 | 10 | SO 14.8 | |
| Ieri h: 11:10 | Sereno | 34 | 18 | 38 | 1018 | 10 | S/SO 16.7 | |
| Ieri h: 10:50 | Sereno | 34 | 18 | 38 | 1018 | 10 | S/SO 14.8 | |
| Ieri h: 10:30 | Sereno | 34 | 18 | 38 | 1018 | 10 | SO 16.7 | |
| Ieri h: 10:10 | Sereno | 32 | 18 | 43 | 1018 | 10 | SO 13 | |
| Ieri h: 09:50 | Sereno | 31 | 19 | 48 | 1018 | 10 | SO 13 | |
| Ieri h: 09:30 | Sereno | 30 | 20 | 55 | 1018 | 10 | O/SO 13 | |
| Ieri h: 09:10 | Sereno | 30 | 21 | 58 | 1018 | 10 | SO 11.1 | |
| Ieri h: 08:50 | Sereno | 28 | 22 | 69 | 1017 | 10 | SO 9.3 | |



